Date String (YYYY-MM-DD hh:mm:ss) UTC,Instrument flags,Ambient pressure (hPa),Sample flow (lpm),Bypass flow (lpm),Sample temperature (°C),Ambient temperature (°C),ASC tube jacket temperature (°C),LED temperature (°C),Box temperature (°C),Sample RH (%),Span deviation,Mass concentration (μg/m³),Mass concentration (μg/m³),Mass concentration (μg/m³)
DateTimeUTC,F1_M11,P_M11,Q1_M11,Q2_M11,T1_M11,T2_M11,T3_M11,T4_M11,T5_M11,U1_M11,ZSPAN_M11,X0_M11,X2_M11,X1_M11
2022-07-18 04:00:00,,0828.5,5.00,0.00,29.3,27.1,00.0,38.0,31.0,27.9,0000.0,0010.37,0005.39,0004.57
2022-07-18 04:01:00,,0828.5,5.00,0.00,29.3,27.3,00.0,38.0,31.1,27.9,0000.0,0010.23,0005.37,0004.57
2022-07-18 04:02:00,,0828.4,5.00,0.00,29.3,27.5,00.0,38.0,31.1,28.1,0000.0,0010.45,0005.39,0004.58
2022-07-18 04:03:00,,0828.4,5.00,0.00,29.3,27.7,00.0,38.0,31.2,28.2,0000.0,0010.91,0005.38,0004.57
2022-07-18 04:04:00,,0828.4,4.99,0.00,29.3,27.9,00.0,38.0,31.2,28.1,0000.0,0011.81,0005.36,0004.56
2022-07-18 04:05:00,,0828.5,5.01,0.00,29.4,28.1,00.0,38.0,31.3,28.0,0000.0,0012.20,0005.37,0004.56
2022-07-18 04:06:00,,0828.4,4.99,0.00,29.4,28.2,00.0,38.1,31.4,27.9,0000.0,0011.89,0005.37,0004.55
2022-07-18 04:07:00,,0828.4,5.01,0.00,29.4,28.4,00.0,38.1,31.4,27.9,0000.0,0012.56,0005.41,0004.55
2022-07-18 04:08:00,,0828.4,5.00,0.00,29.5,28.4,00.0,38.1,31.5,28.0,0000.0,0013.12,0005.41,0004.54
2022-07-18 04:09:00,,0828.4,5.00,0.00,29.5,27.8,00.0,38.1,31.4,27.9,0000.0,0013.33,0005.38,0004.54
2022-07-18 04:10:00,,0828.4,4.99,0.00,29.5,27.2,00.0,38.0,31.3,27.9,0000.0,0013.25,0005.39,0004.54
2022-07-18 04:11:00,,0828.4,5.01,0.00,29.4,27.1,00.0,38.0,31.2,27.9,0000.0,0013.34,0005.41,0004.54
2022-07-18 04:12:00,,0828.3,5.00,0.00,29.3,27.1,00.0,38.0,31.1,28.1,0000.0,0013.39,0005.46,0004.55
2022-07-18 04:13:00,,0828.3,5.00,0.00,29.3,27.3,00.0,38.0,31.1,28.1,0000.0,0013.36,0005.46,0004.56
2022-07-18 04:14:00,,0828.3,5.00,0.00,29.3,27.5,00.0,38.0,31.1,28.1,0000.0,0012.86,0005.46,0004.56
2022-07-18 04:15:00,,0828.3,5.01,0.00,29.3,27.7,00.0,38.0,31.2,28.1,0000.0,0012.07,0005.48,0004.57
2022-07-18 04:16:00,,0828.4,4.99,0.00,29.3,27.9,00.0,38.1,31.3,28.1,0000.0,0011.58,0005.46,0004.56
2022-07-18 04:17:00,,0828.4,5.01,0.00,29.4,28.1,00.0,38.1,31.3,28.1,0000.0,0011.30,0005.46,0004.55
2022-07-18 04:18:00,,0828.4,4.99,0.00,29.4,28.2,00.0,38.1,31.4,28.0,0000.0,0010.58,0005.42,0004.56
2022-07-18 04:19:00,,0828.4,5.01,0.00,29.5,28.4,00.0,38.1,31.4,28.0,0000.0,0010.00,0005.41,0004.56
2022-07-18 04:20:00,,0828.4,4.99,0.00,29.5,28.3,00.0,38.1,31.5,27.9,0000.0,0010.12,0005.41,0004.56
2022-07-18 04:21:00,,0828.4,5.01,0.00,29.5,27.5,00.0,38.1,31.4,27.8,0000.0,0010.51,0005.40,0004.56
2022-07-18 04:22:00,,0828.4,4.99,0.00,29.5,27.0,00.0,38.0,31.3,27.9,0000.0,0010.72,0005.38,0004.56
2022-07-18 04:23:00,,0828.3,5.01,0.00,29.4,27.0,00.0,38.0,31.2,28.0,0000.0,0010.84,0005.40,0004.55
2022-07-18 04:24:00,,0828.4,4.99,0.00,29.3,27.1,00.0,38.0,31.1,28.1,0000.0,0010.62,0005.39,0004.55
2022-07-18 04:25:00,,0828.4,5.00,0.00,29.3,27.2,00.0,38.0,31.1,28.2,0000.0,0010.69,0005.41,0004.55
2022-07-18 04:26:00,,0828.4,4.99,0.00,29.3,27.4,00.0,38.0,31.1,28.2,0000.0,0010.79,0005.40,0004.55
2022-07-18 04:27:00,,0828.5,5.00,0.00,29.3,27.7,00.0,38.1,31.2,28.1,0000.0,0011.15,0005.45,0004.57
2022-07-18 04:28:00,,0828.4,4.99,0.00,29.3,27.9,00.0,38.1,31.3,28.0,0000.0,0012.16,0005.49,0004.59
2022-07-18 04:29:00,,0828.5,5.01,0.00,29.4,28.0,00.0,38.1,31.3,27.9,0000.0,0012.67,0005.54,0004.60
2022-07-18 04:30:00,,0828.5,4.99,0.00,29.4,28.2,00.0,38.1,31.4,27.8,0000.0,0013.30,0005.55,0004.60
2022-07-18 04:31:00,,0828.5,5.00,0.00,29.5,28.4,00.0,38.1,31.4,27.8,0000.0,0013.75,0005.55,0004.61
2022-07-18 04:32:00,,0828.5,4.99,0.00,29.5,28.4,00.0,38.1,31.5,27.7,0000.0,0013.63,0005.61,0004.61
2022-07-18 04:33:00,,0828.5,5.00,0.00,29.5,27.8,00.0,38.1,31.5,27.8,0000.0,0014.10,0005.64,0004.62
2022-07-18 04:34:00,,0828.4,5.00,0.00,29.5,27.1,00.0,38.0,31.3,27.7,0000.0,0014.62,0005.63,0004.63
2022-07-18 04:35:00,,0828.4,5.00,0.00,29.4,27.0,00.0,38.0,31.2,27.8,0000.0,0015.05,0005.64,0004.65
2022-07-18 04:36:00,,0828.5,5.00,0.00,29.4,27.1,00.0,38.0,31.1,27.9,0000.0,0014.89,0005.62,0004.65
2022-07-18 04:37:00,,0828.4,5.00,0.00,29.3,27.2,00.0,38.0,31.1,28.0,0000.0,0014.68,0005.61,0004.66
2022-07-18 04:38:00,,0828.5,5.00,0.00,29.3,27.4,00.0,38.0,31.1,28.0,0000.0,0014.46,0005.56,0004.65
2022-07-18 04:39:00,,0828.4,5.00,0.00,29.3,27.6,00.0,38.0,31.2,27.9,0000.0,0013.66,0005.52,0004.64
2022-07-18 04:40:00,,0828.4,5.01,0.00,29.3,27.8,00.0,38.1,31.2,27.6,0000.0,0013.89,0005.49,0004.64
2022-07-18 04:41:00,,0828.5,5.00,0.00,29.4,28.0,00.0,38.1,31.3,27.5,0000.0,0013.88,0005.47,0004.65
2022-07-18 04:42:00,,0828.4,4.99,0.00,29.4,28.2,00.0,38.1,31.4,27.5,0000.0,0013.08,0005.49,0004.67
2022-07-18 04:43:00,,0828.4,5.01,0.00,29.4,28.3,00.0,38.1,31.4,27.5,0000.0,0013.05,0005.50,0004.68
2022-07-18 04:44:00,,0828.4,4.99,0.00,29.5,28.5,00.0,38.1,31.5,27.4,0000.0,0012.98,0005.50,0004.69
2022-07-18 04:45:00,,0828.3,5.01,0.00,29.5,28.4,00.0,38.1,31.5,27.4,0000.0,0012.51,0005.48,0004.68
2022-07-18 04:46:00,,0828.4,5.00,0.00,29.5,27.7,00.0,38.1,31.4,27.4,0000.0,0012.36,0005.51,0004.68
2022-07-18 04:47:00,,0828.4,5.01,0.00,29.5,27.1,00.0,38.0,31.3,27.4,0000.0,0012.23,0005.52,0004.69
2022-07-18 04:48:00,,0828.4,4.99,0.00,29.4,26.9,00.0,38.0,31.2,27.5,0000.0,0012.55,0005.57,0004.69
2022-07-18 04:49:00,,0828.3,5.01,0.00,29.3,27.0,00.0,38.0,31.1,27.7,0000.0,0013.20,0005.59,0004.68
2022-07-18 04:50:00,,0828.4,4.99,0.00,29.3,27.2,00.0,38.0,31.1,27.8,0000.0,0013.45,0005.59,0004.69
2022-07-18 04:51:00,,0828.3,5.00,0.00,29.3,27.4,00.0,38.0,31.1,27.8,0000.0,0013.22,0005.60,0004.68
2022-07-18 04:52:00,,0828.3,5.00,0.00,29.3,27.6,00.0,38.1,31.2,27.8,0000.0,0012.92,0005.61,0004.67
2022-07-18 04:53:00,,0828.3,5.00,0.00,29.3,27.8,00.0,38.1,31.2,27.8,0000.0,0014.18,0005.58,0004.65
2022-07-18 04:54:00,,0828.4,4.99,0.00,29.4,28.0,00.0,38.1,31.3,27.8,0000.0,0014.30,0005.53,0004.65
2022-07-18 04:55:00,,0828.3,5.01,0.00,29.4,28.1,00.0,38.1,31.4,27.8,0000.0,0013.89,0005.50,0004.63
2022-07-18 04:56:00,,0828.3,4.99,0.00,29.4,28.3,00.0,38.1,31.4,27.7,0000.0,0014.28,0005.50,0004.63
2022-07-18 04:57:00,,0828.3,5.00,0.00,29.5,28.4,00.0,38.1,31.5,27.6,0000.0,0014.27,0005.46,0004.62
2022-07-18 04:58:00,,0828.3,5.00,0.00,29.5,28.5,00.0,38.2,31.5,27.6,0000.0,0014.49,0005.48,0004.61
2022-07-18 04:59:00,,0828.4,5.00,0.00,29.5,27.9,00.0,38.1,31.5,27.5,0000.0,0014.27,0005.49,0004.62
